[[{"header":{"parameterUnit":"m.s-1","parameterCategory":1,"la1":30.2991,"la2":30.254,"lo1":-89.0895,"lo2":-89.0444,"dy":0.0017,"dx":0.0017,"nx":28,"ny":28,"refTime":"2025-03-14T03:00:00:Z","depth":0,"parameterNumber":2,"parameterNumberName":"U-component_of_WINDS"},"data":[0,0,0,0,0,0,0,0,0,0,0,0,0,0,0,0,0,0,0,0,0,0,0,0,0,0,0,0,0,0,0,0,0,0,0,0,0,0,0,0,0,0,0,0,0,0,0,0,0,0,0,0,0,0,0,0,0,0,-1.8429,-1.8429,0,-1.847,-1.847,-1.8471,-1.8465,-1.8464,-1.8464,-1.8463,-1.8505,-1.8507,-1.8509,0,0,0,0,0,0,0,0,0,0,0,0,0,-1.8347,-1.8348,-1.8429,-1.8429,-1.843,-1.8469,-1.847,-1.8471,-1.8465,-1.8464,-1.8464,-1.8463,-1.8505,-1.8507,-1.8509,0,0,0,0,0,0,0,0,0,0,0,0,0,-1.8385,-1.8349,-1.8429,-1.8432,-1.8432,-1.8469,-1.847,-1.8471,-1.8465,-1.8464,-1.8463,-1.8462,-1.8504,-1.8507,-1.8509,-1.8546,0,0,-1.8517,-1.8519,0,0,0,0,0,0,0,0,-1.8382,-1.8388,-1.8431,-1.8432,-1.8432,-1.8461,-1.8457,-1.8496,-1.8466,-1.8453,-1.8463,-1.8462,-1.8492,-1.8495,-1.8505,-1.8548,-1.855,-1.8518,-1.8519,-1.852,-1.8521,0,0,0,0,0,0,0,-1.838,-1.8386,-1.8445,-1.8431,-1.8432,-1.8431,-1.8436,-1.8464,-1.8477,-1.8454,-1.8454,-1.8458,-1.8492,-1.8503,-1.8506,-1.855,-1.8518,-1.852,-1.8522,-1.8523,-1.8626,-1.8627,0,0,0,0,0,0,-1.8376,-1.8384,-1.8444,-1.8446,-1.8404,-1.8434,-1.8438,-1.8453,-1.8477,-1.848,-1.8459,-1.8458,-1.8499,-1.8503,-1.8508,-1.8552,-1.852,-1.8523,-1.8524,-1.8625,-1.8626,-1.8627,0,0,0,0,0,0,-1.8374,-1.8382,-1.8442,-1.8415,-1.8422,-1.8436,-1.8453,-1.8454,-1.8465,-1.8481,-1.8484,-1.8468,-1.8498,-1.8504,-1.8536,-1.8553,-1.8524,-1.8526,-1.8623,-1.8625,-1.8627,-1.8641,0,0,0,0,0,0,-1.8372,-1.8381,-1.8395,-1.8415,-1.8424,-1.847,-1.8454,-1.8456,-1.8469,-1.8468,-1.849,-1.8492,-1.8498,-1.8533,-1.8539,-1.8556,-1.8529,-1.8622,-1.8624,-1.8626,-1.8639,-1.8643,-1.8646,0,0,0,0,0,-1.8369,-1.8397,-1.8395,-1.8403,-1.8441,-1.8471,-1.8476,-1.8481,-1.8471,-1.8485,-1.8495,-1.8492,-1.8551,-1.8536,-1.8543,-1.8562,-1.8621,-1.8623,-1.8626,-1.8637,-1.8642,-1.8646,0,0,0,0,0,0,-1.8378,-1.84,-1.8398,-1.8433,-1.845,-1.847,-1.8488,-1.8486,-1.8506,-1.8504,-1.851,-1.8515,-1.8548,-1.8558,-1.8542,-1.8598,-1.8584,-1.8588,-1.859,-1.8595,-1.8599,-1.8595,-1.8531,0,0,0,0,0,-1.8384,-1.8406,-1.8424,-1.8454,-1.8462,-1.8474,-1.8487,-1.8489,-1.8507,-1.8514,-1.8527,-1.8545,-1.8567,-1.8582,-1.8604,-1.8641,-1.8645,-1.8657,-1.8661,-1.8664,-1.8667,-1.8687,-1.8693,-1.8636,-1.8636,-1.8636,0,0,-1.8397,-1.8412,-1.8425,-1.8456,-1.8469,-1.8492,-1.8479,-1.8504,-1.8521,-1.8518,-1.8549,-1.856,-1.858,-1.8615,-1.8631,-1.8624,-1.8684,-1.8667,-1.8669,-1.8671,-1.8691,-1.8696,-1.8701,-1.8637,-1.8637,-1.8637,0,0,-1.8432,-1.8445,-1.8471,-1.8485,-1.8506,-1.8513,-1.8519,-1.8539,-1.8546,-1.8578,-1.8576,-1.8597,-1.8635,-1.865,-1.8662,-1.8704,-1.8701,-1.8711,-1.8729,-1.8749,-1.8754,-1.8758,-1.8772,-1.8777,-1.8714,-1.8714,-1.8714,0,-1.8445,-1.8479,-1.8485,-1.851,-1.8523,-1.8522,-1.8548,-1.8562,-1.8588,-1.8598,-1.859,-1.8639,-1.8652,-1.8691,-1.8701,-1.8711,-1.8719,-1.8708,-1.8752,-1.8757,-1.876,-1.8774,-1.878,-1.8715,-1.8715,-1.8715,-1.8715,0,-1.8495,-1.8518,-1.8537,-1.8562,-1.8578,-1.8604,-1.8614,-1.8629,-1.8631,-1.8639,-1.8672,-1.8688,-1.8713,-1.8723,-1.8725,-1.8762,-1.8757,-1.8751,-1.8737,-1.8767,-1.878,-1.8785,-1.8716,-1.8716,-1.8716,-1.8716,0,0,-1.8535,-1.8564,-1.8571,-1.8582,-1.8605,-1.8624,-1.865,-1.8674,-1.8687,-1.8706,-1.8728,-1.8761,-1.8756,-1.877,-1.8774,-1.8791,-1.8823,-1.8783,-1.8784,-1.8789,-1.8865,-1.8869,-1.8875,-1.8822,-1.8823,-1.8824,-1.8863,0,-1.8572,-1.8617,-1.8623,-1.8663,-1.8685,-1.8685,-1.8708,-1.8724,-1.8733,-1.8754,-1.8764,-1.8787,-1.8778,-1.8787,-1.8804,-1.8815,-1.8838,-1.8813,-1.8842,-1.8843,-1.8836,-1.8881,-1.8886,-1.8922,-1.8868,-1.8869,-1.887,0,-1.862,-1.864,-1.8683,-1.8703,-1.8712,-1.8732,-1.8755,-1.8775,-1.8794,-1.8799,-1.8816,-1.8817,-1.8845,-1.883,-1.8868,-1.885,-1.8863,-1.8871,-1.8872,-1.8874,-1.8857,-1.8884,-1.8933,-1.8939,-1.8878,-1.8877,-1.8876,0,-1.8645,-1.8683,-1.8713,-1.8723,-1.8748,-1.8762,-1.8773,-1.8791,-1.8805,-1.8826,-1.8835,-1.8859,-1.8871,-1.889,-1.8898,-1.8886,-1.8935,-1.8921,-1.894,-1.894,-1.895,-1.8949,-1.9001,-1.8959,-1.8959,-1.8959,-1.8959,0,-1.8685,-1.8711,-1.8724,-1.8743,-1.8772,-1.8779,-1.8808,-1.8819,-1.8835,-1.8856,-1.8857,-1.8877,-1.8887,-1.8908,-1.8915,-1.8945,-1.8951,-1.8956,-1.8957,-1.8955,-1.8955,-1.8963,-1.8961,-1.896,-1.896,-1.896,-1.8959,0,-1.8718,-1.8728,-1.876,-1.8781,-1.8787,-1.8807,-1.8825,-1.8843,-1.8852,-1.8879,-1.8885,-1.89,-1.8925,-1.8935,-1.8966,-1.8971,-1.9005,-1.9005,-1.8998,-1.8999,-1.9017,-1.9015,-1.9076,-1.9084,-1.9037,-1.9038,-1.9038,0,-1.8742,-1.8762,-1.8784,-1.8798,-1.881,-1.8832,-1.8847,-1.8855,-1.887,-1.8894,-1.8909,-1.8935,-1.8955,-1.8995,-1.9009,-1.9033,-1.9033,-1.9052,-1.9036,-1.9034,-1.9032,-1.9031,-1.9033,-1.9055,-1.9055,-1.9056,-1.9056,0,-1.8784,-1.8788,-1.8809,-1.8832,-1.8849,-1.8868,-1.8886,-1.8897,-1.8909,-1.8926,-1.8951,-1.8967,-1.8999,-1.9024,-1.9049,-1.906,-1.906,-1.9061,-1.9067,-1.9065,-1.906,-1.9062,-1.9006,-1.9059,-1.9059,-1.9059,-1.9059,-1.9059,-1.8813,-1.883,-1.8849,-1.8873,-1.8887,-1.8904,-1.8922,-1.8933,-1.8955,-1.8981,-1.8985,-1.9012,-1.9032,-1.9065,-1.9078,-1.9099,-1.9094,-1.9103,-1.9104,-1.9106,-1.9107,-1.9057,-1.9104,-1.9104,-1.9104,-1.9104,-1.9104,0,-1.8855,-1.8867,-1.8888,-1.8913,-1.8932,-1.893,-1.895,-1.8966,-1.899,-1.9008,-1.9028,-1.9058,-1.9082,-1.9098,-1.9122,-1.9137,-1.9138,-1.9143,-1.9142,-1.9144,-1.911,-1.9103,-1.9142,-1.9142,-1.9142,-1.9142,-1.9142,-1.9142,-1.8879,-1.8908,-1.8915,-1.8952,-1.8964,-1.899,-1.9002,-1.9018,-1.9032,-1.9065,-1.9085,-1.9095,-1.9112,-1.9138,-1.9161,-1.9165,-1.9174,-1.9179,-1.9183,-1.9151,-1.9147,-1.9143,-1.9136,-1.9181,-1.9182,-1.9215,-1.9215,-1.9216]},{"header":{"parameterUnit":"m.s-1","parameterCategory":1,"la1":30.2991,"la2":30.254,"lo1":-89.0895,"lo2":-89.0444,"dy":0.0017,"dx":0.0017,"nx":28,"ny":28,"refTime":"2025-03-14T03:00:00:Z","depth":0,"parameterNumber":3,"parameterNumberName":"V-component_of_WINDS"},"data":[0,0,0,0,0,0,0,0,0,0,0,0,0,0,0,0,0,0,0,0,0,0,0,0,0,0,0,0,0,0,0,0,0,0,0,0,0,0,0,0,0,0,0,0,0,0,0,0,0,0,0,0,0,0,0,0,0,0,2.1628,2.1628,0,2.166,2.166,2.1661,2.1675,2.1675,2.1675,2.1675,2.1708,2.1709,2.171,0,0,0,0,0,0,0,0,0,0,0,0,0,2.1583,2.1584,2.1628,2.1629,2.1629,2.166,2.166,2.1661,2.1675,2.1675,2.1675,2.1675,2.1708,2.1709,2.171,0,0,0,0,0,0,0,0,0,0,0,0,0,2.1608,2.1584,2.1628,2.164,2.1641,2.166,2.166,2.1661,2.1675,2.1675,2.1675,2.1675,2.1707,2.1709,2.171,2.1719,0,0,2.1714,2.1715,0,0,0,0,0,0,0,0,2.1606,2.1609,2.1638,2.1639,2.1641,2.1664,2.1656,2.168,2.1675,2.1663,2.1675,2.1675,2.1693,2.1696,2.1702,2.172,2.1722,2.1714,2.1715,2.1716,2.1716,0,0,0,0,0,0,0,2.1604,2.1608,2.1641,2.1638,2.164,2.1645,2.1648,2.1661,2.1678,2.1664,2.1665,2.1668,2.1694,2.1701,2.1703,2.1722,2.1714,2.1715,2.1716,2.1717,2.1754,2.1754,0,0,0,0,0,0,2.1601,2.1606,2.164,2.1642,2.1623,2.1646,2.1649,2.1656,2.1678,2.1681,2.1668,2.1669,2.1698,2.1701,2.1704,2.1718,2.1716,2.1717,2.1718,2.1753,2.1754,2.1754,0,0,0,0,0,0,2.16,2.1603,2.1638,2.1624,2.1629,2.1646,2.1654,2.1657,2.1663,2.1681,2.1684,2.1672,2.1698,2.1702,2.1716,2.1719,2.1717,2.1719,2.1753,2.1753,2.1754,2.1745,0,0,0,0,0,0,2.1598,2.1603,2.1606,2.1624,2.163,2.1649,2.1654,2.1658,2.1666,2.1667,2.1685,2.1688,2.1699,2.1714,2.1717,2.1721,2.172,2.1753,2.1753,2.1754,2.1745,2.1745,2.1744,0,0,0,0,0,2.1597,2.1601,2.1606,2.1609,2.1633,2.1649,2.1652,2.1664,2.1666,2.1669,2.1681,2.1688,2.1718,2.1715,2.1719,2.1723,2.1753,2.1753,2.1754,2.1745,2.1745,2.1744,0,0,0,0,0,0,2.1581,2.1603,2.1609,2.1619,2.1632,2.1651,2.1656,2.1663,2.1676,2.1676,2.1691,2.1695,2.1708,2.1717,2.1713,2.1735,2.1736,2.1738,2.1728,2.1728,2.1728,2.1726,2.1721,0,0,0,0,0,2.1579,2.1589,2.1609,2.1616,2.1622,2.1638,2.1645,2.1654,2.1668,2.1673,2.1686,2.17,2.1713,2.1721,2.1734,2.1746,2.1752,2.1752,2.1751,2.1751,2.1752,2.1763,2.1763,2.1755,2.1755,2.1755,0,0,2.1575,2.1588,2.1594,2.1614,2.1624,2.1636,2.1643,2.1654,2.1663,2.1675,2.1689,2.17,2.1716,2.173,2.1737,2.1738,2.1756,2.1752,2.1751,2.1753,2.1763,2.1764,2.1765,2.1755,2.1755,2.1755,0,0,2.1573,2.1584,2.1592,2.1604,2.1621,2.1632,2.1634,2.1653,2.1661,2.1675,2.1686,2.1697,2.1719,2.1731,2.174,2.1747,2.1754,2.1751,2.175,2.176,2.1761,2.1761,2.1766,2.1767,2.1752,2.1752,2.1752,0,2.1565,2.1582,2.1596,2.1607,2.1617,2.163,2.164,2.165,2.1671,2.1677,2.1679,2.1708,2.172,2.1739,2.1741,2.1747,2.1751,2.1749,2.1759,2.176,2.1761,2.1766,2.1767,2.1751,2.1751,2.1751,2.1751,0,2.1574,2.1586,2.1591,2.1611,2.1621,2.1632,2.1648,2.1657,2.1666,2.1677,2.1694,2.1709,2.1727,2.1732,2.1739,2.1752,2.1753,2.1756,2.1758,2.1761,2.1766,2.1768,2.1751,2.1751,2.1751,2.1751,0,0,2.1561,2.1591,2.1593,2.1604,2.1625,2.1635,2.1648,2.1665,2.1674,2.1688,2.17,2.172,2.1725,2.1735,2.1745,2.1753,2.1761,2.1757,2.1757,2.1758,2.1779,2.1777,2.1779,2.1766,2.1766,2.1767,2.1779,0,2.1563,2.1585,2.1599,2.1617,2.163,2.1644,2.1655,2.167,2.1682,2.1696,2.1709,2.1724,2.1728,2.1734,2.1744,2.1758,2.1766,2.1757,2.1779,2.1779,2.1775,2.1781,2.1777,2.1788,2.178,2.178,2.1781,0,2.1567,2.1583,2.1602,2.1625,2.1631,2.1641,2.166,2.1672,2.1691,2.1699,2.1713,2.1723,2.1739,2.174,2.1763,2.1757,2.1768,2.1776,2.1777,2.178,2.178,2.1785,2.1791,2.1793,2.1783,2.1783,2.1783,0,2.1559,2.1584,2.16,2.1608,2.1635,2.1642,2.1654,2.1672,2.1683,2.1701,2.1708,2.1727,2.1737,2.1752,2.1768,2.1767,2.1791,2.1793,2.18,2.1799,2.1804,2.1803,2.1813,2.1809,2.1809,2.1809,2.1809,0,2.156,2.1571,2.1596,2.1606,2.162,2.1637,2.1651,2.1664,2.1682,2.1695,2.1708,2.1721,2.1741,2.1757,2.177,2.1788,2.1792,2.1801,2.1804,2.18,2.1799,2.1807,2.1807,2.1809,2.1809,2.1809,2.1809,0,2.1551,2.1568,2.1587,2.1612,2.1618,2.1628,2.165,2.1661,2.1675,2.1692,2.1697,2.1719,2.1739,2.1756,2.1782,2.1791,2.1811,2.1814,2.1804,2.1806,2.1813,2.1813,2.1829,2.1833,2.1824,2.1824,2.1824,0,2.1551,2.1561,2.1587,2.1598,2.1609,2.1625,2.1637,2.1656,2.1668,2.1692,2.1701,2.1721,2.1739,2.177,2.1789,2.1809,2.1814,2.1819,2.1817,2.1814,2.1817,2.1816,2.1819,2.1819,2.1819,2.1818,2.1818,0,2.1549,2.1558,2.1575,2.1595,2.161,2.1626,2.1644,2.1652,2.1674,2.1687,2.1708,2.1722,2.175,2.1771,2.1794,2.1808,2.1818,2.1819,2.1822,2.1818,2.1813,2.1818,2.1805,2.1818,2.1818,2.1818,2.1818,2.1818,2.1546,2.1556,2.1578,2.1597,2.1612,2.1629,2.1642,2.1658,2.1676,2.17,2.171,2.1732,2.1754,2.1786,2.18,2.1819,2.182,2.1824,2.1825,2.1826,2.1827,2.181,2.1823,2.1823,2.1823,2.1823,2.1823,0,2.1547,2.1562,2.1579,2.1604,2.162,2.1629,2.1649,2.1662,2.1681,2.1701,2.1719,2.1744,2.1766,2.1788,2.1811,2.1822,2.1828,2.1828,2.1827,2.1831,2.1823,2.1818,2.1823,2.1823,2.1823,2.1823,2.1823,2.1823,2.1549,2.1567,2.158,2.1607,2.1623,2.1644,2.1656,2.1673,2.1689,2.1717,2.1735,2.175,2.1771,2.1797,2.1818,2.1824,2.1833,2.1832,2.184,2.1831,2.1831,2.1831,2.1827,2.1834,2.1834,2.1847,2.1847,2.1847]}]]